Probability
0 0 0 0 0 0 0 0 0 0 0 0 0 0 0 0 0 0 6 10 10 13 26 32 42 42 39 45 48 52 55 52 45 45 39 39 42 45 39 32 29 29 29 29 26 23 26 23 16
0 0 0 0 0 0 0 0 0 0 0 0 0 0 0 0 3 3 10 13 13 13 23 32 29 32 35 39 42 42 45 45 42 45 42 39 39 39 35 29 29 26 26 23 19 19 19 19 19
0 0 0 0 0 0 0 0 0 0 0 0 0 0 0 0 3 10 10 10 10 13 19 26 26 26 32 35 35 42 42 39 39 45 42 42 35 35 29 26 26 26 23 19 19 19 19 16 13
0 0 0 0 0 0 0 0 0 0 0 0 0 0 0 0 6 10 10 10 13 19 23 23 26 26 29 29 35 35 35 35 35 32 39 42 32 32 26 29 16 23 23 19 19 19 19 19 13
0 0 0 0 0 0 0 0 0 0 0 0 0 0 0 3 6 10 13 10 16 16 19 19 23 19 26 26 26 29 29 29 35 29 32 39 32 32 23 19 19 13 16 19 19 16 16 16 16
0 0 0 0 0 0 0 0 0 0 0 0 0 0 0 0 6 10 13 13 13 19 19 19 23 23 23 19 23 26 26 29 23 26 26 26 29 29 23 19 19 16 16 13 16 19 16 16 16
0 0 0 0 0 0 0 0 0 0 0 0 0 0 0 3 3 6 13 13 13 16 19 19 16 16 16 19 19 16 16 19 19 16 19 19 23 26 19 16 19 13 16 13 13 10 16 16 13
0 0 0 0 0 0 0 0 0 0 0 0 0 0 0 3 6 6 6 10 13 16 16 13 13 13 10 10 13 13 13 13 10 10 13 10 10 13 13 6 6 10 13 10 10 10 6 6 6
0 0 0 0 0 0 0 0 0 0 0 0 0 0 0 3 3 3 6 6 6 6 13 13 13 13 13 10 6 13 6 6 10 6 3 6 6 6 3 0 0 0 10 6 10 6 6 0 0
0 0 0 0 0 0 0 0 0 0 0 0 0 0 0 3 3 6 6 6 6 6 10 10 13 13 13 6 6 6 6 10 3 3 6 6 6 3 0 0 0 0 0 3 3 6 3 0 0
0 0 0 0 0 0 0 0 0 0 0 0 0 0 0 3 3 3 6 6 6 6 6 10 10 10 13 10 6 3 3 6 10 6 3 6 6 6 6 3 0 3 0 0 0 0 0 0 0
0 0 0 0 0 0 0 0 0 0 0 0 0 0 0 3 3 3 3 3 3 6 6 6 6 6 10 10 0 3 3 3 6 6 3 6 6 6 6 6 3 6 0 0 0 0 0 0 0
0 0 0 0 0 0 0 0 0 0 0 0 0 0 0 3 3 3 3 3 3 6 6 6 6 6 6 3 3 3 3 3 3 0 3 6 3 3 3 0 0 0 0 0 0 0 0 0 0
0 0 0 0 0 0 0 0 0 0 0 0 0 0 3 3 3 3 3 3 3 3 6 6 3 3 0 0 3 3 3 3 0 0 0 0 3 3 0 0 0 0 0 0 0 0 0 0 0
0 0 0 0 0 0 0 0 0 0 0 0 0 0 3 0 3 3 3 3 3 0 3 3 3 0 0 0 0 0 0 0 0 0 0 0 0 0 0 0 0 0 0 0 0 0 0 0 0
0 0 0 0 0 0 0 0 0 0 0 0 0 0 0 0 0 0 0 0 0 0 0 3 0 0 3 3 0 0 0 0 0 0 0 0 0 0 0 0 0 0 0 0 0 0 0 0 0
0 0 0 0 0 0 0 0 0 0 0 0 0 0 0 0 0 0 0 0 0 0 0 0 3 3 3 0 0 0 0 0 0 0 0 0 0 0 0 0 0 0 0 0 0 0 0 0 0
0 0 0 0 0 0 0 0 0 0 0 0 0 0 0 0 0 0 0 0 0 0 3 0 3 0 0 0 0 0 0 0 0 0 0 0 0 0 0 0 0 0 0 0 0 0 0 0 0
0 0 0 0 0 0 0 0 0 0 0 0 0 0 0 0 0 0 0 0 0 0 0 0 0 0 0 0 0 0 0 0 0 0 0 0 0 0 0 0 0 0 0 0 0 0 0 0 0
0 0 0 0 0 0 0 0 0 0 0 0 0 0 0 0 0 0 0 0 0 3 0 0 0 0 0 0 0 0 0 0 0 0 0 0 0 0 0 0 0 0 0 0 0 0 0 0 0
0 0 0 0 0 0 0 0 0 0 0 0 0 0 0 0 0 0 0 0 0 0 0 0 0 0 0 0 0 0 0 0 0 0 0 0 0 0 0 0 0 0 0 0 0 0 0 0 0
0 0 0 0 0 0 0 0 0 0 0 0 0 0 0 0 0 0 0 0 0 0 0 0 0 0 0 0 0 0 0 0 0 0 0 0 0 0 0 0 0 0 0 0 0 0 0 0 0
0 0 0 0 0 0 0 0 0 0 0 0 0 0 0 0 0 0 0 0 0 0 0 0 0 0 0 0 0 0 0 0 0 0 0 0 0 0 0 0 0 0 0 0 0 0 0 0 0
0 0 0 0 0 0 0 0 0 0 0 0 0 0 0 0 0 0 0 0 0 0 0 0 0 0 0 0 0 0 0 0 0 0 0 0 0 0 0 0 0 0 0 0 0 0 0 0 0
0 0 0 0 0 0 0 0 0 0 0 0 0 0 0 0 0 0 0 0 0 0 0 0 0 0 0 0 0 0 0 0 0 0 0 0 0 0 0 0 0 0 0 0 0 0 0 0 0
0 0 0 0 0 0 0 0 0 0 0 0 0 0 0 0 0 0 0 0 0 0 0 0 0 0 0 0 0 0 0 0 0 0 0 0 0 0 0 0 0 0 0 0 0 0 0 0 0
0 0 0 0 0 0 0 0 0 0 0 0 0 0 0 0 0 0 0 0 0 0 0 0 0 0 0 0 0 0 0 0 0 0 0 0 0 0 0 0 0 0 0 0 0 0 0 0 0
0 0 0 0 0 0 0 0 0 0 0 0 0 0 0 0 0 0 0 0 0 0 0 0 0 0 0 0 0 0 0 0 0 0 0 0 0 0 0 0 0 0 0 0 0 0 0 0 0
0 0 0 0 0 0 0 0 0 0 0 0 0 0 0 0 0 0 0 0 0 0 0 0 0 0 0 0 0 0 0 0 0 0 0 0 0 0 0 0 0 0 0 0 0 0 0 0 0
0 0 0 0 0 0 0 0 0 0 0 0 0 0 0 0 0 0 0 0 0 0 0 0 0 0 0 0 0 0 0 0 0 0 0 0 0 0 0 0 0 0 0 0 0 0 0 0 0
Height
5826 5825 5825 5826 5826 5826 5826 5828 5829 5830 5831 5833 5834 5836 5837 5839 5841 5844 5843 5843 5844 5845 5846 5847 5848 5849 5850 5851 5852 5853 5854 5855 5856 5857 5858 5859 5860 5860 5861 5861 5862 5862 5862 5863 5863 5863 5864 5864 5864
5820 5820 5820 5820 5819 5820 5821 5822 5822 5824 5825 5827 5828 5830 5832 5834 5835 5837 5837 5838 5840 5841 5842 5843 5844 5845 5846 5847 5848 5850 5851 5852 5853 5854 5855 5856 5857 5858 5858 5859 5859 5860 5860 5861 5861 5861 5861 5862 5862
5814 5814 5814 5814 5813 5814 5815 5816 5816 5817 5819 5820 5822 5824 5826 5828 5830 5831 5833 5834 5835 5836 5837 5839 5840 5841 5842 5843 5844 5846 5847 5848 5850 5851 5852 5853 5854 5855 5855 5856 5857 5857 5858 5858 5858 5859 5859 5859 5859
5809 5809 5808 5808 5807 5808 5809 5809 5809 5810 5812 5814 5816 5818 5820 5823 5824 5826 5828 5829 5830 5832 5833 5834 5835 5836 5837 5838 5840 5841 5843 5844 5846 5847 5848 5849 5851 5852 5852 5853 5854 5854 5855 5855 5856 5856 5856 5856 5857
5803 5803 5802 5801 5801 5802 5802 5802 5802 5803 5805 5807 5809 5812 5814 5816 5818 5820 5822 5824 5825 5826 5827 5828 5830 5831 5832 5833 5835 5836 5838 5840 5841 5843 5844 5845 5847 5848 5849 5849 5850 5851 5851 5852 5852 5853 5853 5854 5854
5797 5796 5796 5795 5795 5795 5795 5796 5796 5797 5799 5801 5803 5805 5807 5809 5812 5814 5816 5818 5819 5820 5822 5823 5824 5825 5826 5828 5829 5831 5833 5834 5836 5838 5839 5841 5842 5843 5844 5845 5846 5847 5848 5848 5849 5849 5850 5850 5851
5791 5790 5789 5789 5789 5789 5789 5789 5790 5791 5793 5795 5797 5799 5801 5803 5805 5807 5809 5811 5813 5814 5815 5817 5818 5819 5820 5821 5823 5825 5827 5829 5830 5832 5833 5835 5837 5838 5840 5841 5842 5843 5844 5845 5845 5846 5846 5847 5847
5785 5785 5783 5783 5783 5783 5784 5783 5784 5785 5787 5789 5790 5792 5795 5797 5799 5801 5802 5804 5806 5807 5809 5810 5811 5812 5813 5815 5817 5819 5821 5823 5825 5826 5827 5829 5831 5833 5835 5836 5838 5839 5840 5840 5841 5842 5843 5843 5843
5779 5780 5778 5778 5778 5778 5778 5778 5779 5780 5781 5783 5784 5786 5788 5790 5792 5794 5796 5797 5799 5800 5801 5802 5803 5805 5806 5807 5809 5812 5814 5816 5818 5820 5821 5823 5825 5827 5829 5831 5832 5834 5835 5836 5837 5837 5838 5838 5839
5774 5773 5773 5773 5772 5772 5772 5772 5773 5774 5775 5777 5778 5780 5782 5783 5785 5787 5788 5790 5791 5793 5793 5794 5796 5797 5798 5800 5802 5804 5807 5809 5811 5813 5815 5817 5819 5821 5823 5825 5827 5828 5829 5830 5831 5832 5833 5833 5834
5769 5769 5768 5767 5767 5767 5767 5767 5767 5768 5769 5770 5772 5773 5775 5776 5778 5780 5781 5782 5783 5784 5785 5786 5787 5788 5789 5791 5794 5796 5799 5802 5804 5806 5808 5811 5812 5815 5817 5819 5820 5821 5823 5824 5826 5826 5827 5828 5829
5765 5764 5763 5762 5762 5762 5762 5762 5762 5762 5763 5764 5765 5766 5767 5769 5770 5772 5773 5774 5775 5775 5776 5777 5778 5779 5780 5782 5784 5787 5790 5793 5796 5798 5801 5804 5806 5808 5811 5813 5814 5815 5817 5818 5819 5820 5821 5822 5823
5760 5759 5758 5757 5757 5757 5757 5757 5757 5757 5757 5758 5758 5759 5761 5762 5763 5764 5764 5765 5766 5766 5767 5767 5768 5769 5771 5772 5775 5778 5781 5784 5787 5790 5793 5796 5799 5801 5804 5806 5808 5809 5811 5812 5813 5814 5815 5816 5816
5756 5755 5753 5752 5752 5752 5752 5751 5751 5751 5751 5751 5752 5753 5755 5755 5756 5755 5756 5757 5757 5757 5757 5758 5759 5760 5762 5764 5766 5769 5772 5775 5778 5781 5785 5789 5792 5794 5796 5799 5801 5803 5804 5805 5807 5808 5809 5809 5810
5751 5750 5749 5748 5747 5746 5746 5746 5745 5745 5745 5745 5746 5747 5748 5748 5748 5748 5748 5748 5748 5748 5748 5749 5750 5751 5753 5755 5757 5760 5763 5767 5770 5773 5777 5781 5784 5786 5789 5791 5793 5795 5797 5798 5800 5801 5801 5802 5803
5746 5745 5744 5744 5742 5741 5742 5741 5740 5739 5738 5739 5739 5740 5740 5741 5741 5740 5740 5740 5740 5739 5740 5740 5741 5742 5744 5746 5748 5751 5754 5758 5761 5765 5768 5772 5775 5778 5781 5783 5785 5788 5789 5791 5792 5793 5794 5795 5795
5741 5740 5740 5739 5738 5736 5736 5736 5734 5732 5732 5732 5732 5732 5732 5733 5733 5732 5732 5732 5732 5731 5731 5731 5732 5734 5736 5737 5740 5742 5746 5750 5753 5756 5759 5763 5767 5769 5772 5775 5777 5779 5781 5783 5784 5785 5786 5787 5787
5736 5735 5735 5734 5732 5732 5730 5730 5728 5726 5726 5725 5725 5725 5725 5725 5725 5725 5725 5725 5724 5724 5723 5723 5724 5725 5727 5729 5731 5734 5738 5741 5744 5748 5751 5754 5758 5761 5764 5766 5769 5771 5773 5775 5776 5777 5777 5778 5779
5731 5730 5729 5729 5727 5726 5725 5724 5722 5721 5720 5719 5719 5718 5718 5718 5718 5718 5717 5717 5717 5717 5716 5715 5716 5717 5719 5722 5724 5727 5730 5734 5737 5740 5743 5746 5749 5753 5756 5758 5760 5762 5764 5766 5767 5768 5769 5769 5769
5725 5725 5724 5723 5721 5720 5719 5718 5717 5715 5714 5713 5713 5712 5712 5712 5711 5711 5711 5710 5710 5710 5709 5708 5709 5710 5712 5715 5717 5720 5723 5726 5729 5732 5735 5738 5741 5744 5747 5749 5751 5753 5755 5756 5757 5758 5759 5759 5759
5719 5719 5719 5718 5716 5714 5713 5713 5712 5710 5709 5708 5707 5706 5705 5705 5705 5705 5704 5703 5702 5702 5702 5702 5703 5704 5706 5708 5711 5713 5716 5719 5722 5724 5727 5730 5732 5735 5738 5740 5742 5744 5745 5747 5748 5749 5749 5749 5749
5714 5714 5713 5711 5710 5709 5708 5706 5707 5705 5703 5702 5701 5700 5700 5699 5699 5698 5698 5697 5696 5696 5696 5696 5697 5698 5699 5701 5703 5706 5708 5711 5714 5716 5719 5722 5725 5727 5729 5731 5733 5734 5736 5737 5738 5739 5739 5739 5739
5707 5707 5706 5705 5703 5703 5701 5700 5701 5699 5698 5697 5696 5695 5694 5694 5693 5692 5691 5690 5690 5689 5689 5690 5690 5691 5693 5694 5696 5699 5701 5704 5706 5708 5711 5714 5717 5718 5720 5722 5724 5725 5726 5727 5728 5729 5728 5728 5728
5700 5700 5699 5698 5697 5696 5696 5694 5694 5693 5692 5691 5690 5689 5688 5688 5687 5686 5685 5684 5683 5683 5683 5683 5684 5684 5686 5687 5689 5692 5694 5696 5698 5700 5703 5706 5708 5710 5711 5713 5715 5716 5717 5717 5718 5718 5718 5718 5717
5693 5694 5692 5691 5690 5690 5689 5687 5688 5687 5686 5685 5684 5683 5682 5681 5680 5680 5679 5678 5677 5677 5677 5677 5677 5678 5679 5681 5683 5684 5686 5689 5691 5692 5695 5697 5699 5701 5702 5704 5706 5706 5707 5707 5707 5708 5707 5707 5706
5686 5686 5686 5685 5684 5683 5682 5681 5682 5681 5680 5679 5678 5677 5676 5675 5674 5673 5672 5671 5670 5670 5670 5671 5671 5671 5672 5674 5675 5677 5679 5681 5683 5685 5687 5689 5690 5692 5693 5695 5696 5697 5697 5697 5697 5697 5697 5696 5695
5678 5678 5679 5678 5676 5676 5675 5675 5675 5674 5673 5672 5671 5670 5669 5668 5667 5666 5665 5664 5664 5664 5664 5664 5664 5664 5665 5666 5667 5669 5671 5673 5674 5676 5678 5680 5681 5683 5684 5685 5686 5686 5686 5686 5686 5686 5685 5685 5684
5670 5670 5670 5669 5668 5667 5668 5668 5669 5668 5667 5666 5665 5663 5662 5661 5660 5659 5658 5657 5657 5657 5656 5656 5656 5657 5658 5658 5660 5661 5662 5664 5666 5668 5669 5671 5672 5673 5674 5674 5675 5675 5676 5675 5675 5674 5674 5673 5672
5662 5662 5662 5661 5661 5661 5660 5664 5662 5661 5659 5658 5657 5656 5655 5654 5653 5652 5651 5650 5650 5649 5649 5649 5649 5649 5650 5651 5652 5653 5654 5655 5657 5658 5660 5661 5662 5663 5663 5664 5664 5664 5664 5664 5663 5663 5662 5661 5659
5652 5653 5653 5654 5653 5652 5652 5657 5654 5653 5651 5650 5649 5648 5647 5647 5646 5645 5644 5643 5643 5642 5642 5642 5642 5642 5642 5642 5643 5644 5645 5646 5647 5649 5650 5650 5651 5652 5652 5652 5652 5652 5652 5651 5651 5650 5649 5648 5646
Wind_Speed
21 22 22 23 24 26 26 26 26 25 26 26 24 24 23 23 22 23 22 21 20 20 19 19 19 19 19 19 18 19 19 18 18 17 16 15 15 14 13 12 11 10 10 10 10 9 9 9 9
22 22 22 23 25 25 26 26 27 27 27 27 26 25 24 24 24 23 23 22 22 21 21 21 21 21 20 20 20 20 20 20 19 19 18 17 16 16 15 14 13 12 12 11 11 10 10 10 10
22 22 23 24 25 25 25 25 27 28 28 28 28 26 26 25 25 24 24 23 23 22 22 22 22 22 22 22 22 21 21 21 21 21 20 19 18 17 17 16 15 14 13 13 12 11 11 11 11
21 22 23 24 24 24 25 26 27 28 28 29 29 27 27 26 26 26 25 24 24 24 23 24 23 23 23 23 23 23 23 23 23 22 22 21 20 19 18 17 16 15 15 14 13 13 13 13 13
22 23 24 24 24 24 25 26 26 27 28 29 29 28 27 27 27 27 26 25 25 25 25 25 25 25 25 25 25 25 25 25 25 24 24 23 22 21 20 18 18 17 16 15 15 15 15 14 14
23 23 24 24 24 24 25 25 26 26 27 28 29 28 28 28 27 27 27 27 27 26 26 27 27 27 27 26 26 27 27 27 27 26 26 25 24 23 21 20 19 18 17 17 16 16 16 16 15
22 22 23 23 23 23 24 24 25 25 26 27 28 28 28 28 28 28 28 28 28 28 28 28 28 29 29 28 28 27 28 28 28 27 27 27 25 24 23 22 21 20 19 19 18 17 17 17 17
21 22 22 23 23 23 23 23 24 25 26 27 27 27 27 28 28 28 28 29 29 29 29 29 30 30 30 30 30 29 29 29 29 29 28 28 27 26 25 24 23 22 21 20 19 19 19 18 18
21 21 22 22 22 22 22 22 23 25 25 26 26 27 28 27 28 28 29 29 29 29 30 30 31 31 32 32 32 31 31 30 30 30 30 30 29 28 27 26 25 24 23 22 21 21 21 20 20
21 21 21 21 21 21 21 22 23 25 24 25 25 27 28 27 28 28 29 29 30 30 31 31 33 33 33 34 34 34 33 32 32 32 32 31 30 30 29 28 27 26 25 24 24 24 23 22 22
20 20 20 21 21 21 21 22 23 25 24 23 25 26 27 27 28 29 29 30 31 31 32 33 34 34 35 36 36 36 35 34 34 34 33 33 32 31 31 29 29 28 27 26 26 25 25 25 24
20 20 20 20 20 21 22 23 23 24 24 24 25 26 27 27 28 29 30 31 31 32 33 34 34 35 35 37 38 38 38 37 35 35 34 33 32 32 32 30 29 28 28 28 27 27 27 27 26
19 18 19 19 20 21 22 23 24 24 24 24 25 26 26 27 27 29 29 30 30 32 33 34 34 35 36 36 38 39 38 38 37 37 37 34 33 34 33 32 31 30 29 28 28 29 29 28 28
20 19 19 19 20 21 22 23 24 24 24 24 24 26 26 27 27 28 29 30 30 31 32 33 34 35 36 37 38 39 39 38 37 38 38 37 35 35 35 34 33 32 31 30 30 30 30 31 31
20 19 19 20 21 22 22 22 23 24 24 24 25 26 27 28 28 29 30 29 30 31 32 33 35 35 36 37 37 38 39 39 38 39 39 39 37 36 35 36 35 34 33 32 31 31 31 32 33
20 19 19 19 21 22 22 21 23 24 24 24 25 26 27 27 28 28 29 29 29 30 31 33 34 35 36 37 38 38 40 40 38 39 39 39 37 36 35 36 36 35 33 33 32 33 33 34 34
21 20 20 19 20 20 22 22 23 24 24 23 24 25 26 27 27 28 28 28 29 30 31 32 34 35 36 37 37 38 38 39 39 39 38 39 38 36 36 36 35 35 35 34 34 34 35 35 35
21 21 21 21 21 21 22 22 23 24 23 23 24 24 25 26 26 27 27 28 28 29 30 30 32 34 35 36 36 37 38 39 39 38 38 39 41 38 36 36 36 36 36 36 36 36 36 36 37
22 22 22 21 22 22 22 21 22 22 21 22 23 24 24 25 26 26 26 26 27 28 28 28 29 32 33 34 35 35 35 37 38 38 37 38 40 40 38 38 37 36 36 37 37 37 38 38 39
22 22 22 22 22 22 22 21 21 22 21 21 22 22 23 24 25 25 25 26 25 25 26 26 27 29 31 33 34 34 35 35 36 37 37 37 38 39 38 38 37 37 37 38 39 39 39 39 39
22 22 22 22 22 23 23 22 21 21 21 20 21 21 22 23 24 24 24 24 24 24 24 25 27 28 30 31 33 33 34 35 35 37 37 38 37 38 39 39 38 38 38 39 40 40 40 40 40
23 23 23 23 23 23 23 23 21 21 21 21 20 21 21 22 23 24 24 23 22 22 23 23 26 27 28 30 33 34 34 34 35 37 38 38 38 38 40 40 39 38 39 39 40 40 40 41 42
22 22 23 23 23 24 24 24 23 22 21 21 21 21 21 21 22 23 24 23 22 23 23 24 26 27 29 30 33 33 33 34 35 37 38 38 37 37 39 40 39 39 39 39 40 41 42 42 42
23 23 24 23 24 24 23 24 23 23 22 22 22 21 21 22 23 24 24 23 23 23 24 24 25 27 28 29 31 32 33 34 34 35 37 37 36 38 38 40 40 40 40 40 40 41 42 42 42
24 24 25 25 24 24 23 24 23 23 22 22 22 22 23 23 23 23 24 23 23 23 23 24 25 26 28 29 30 32 33 34 35 36 36 36 36 36 38 39 40 40 41 41 41 42 42 44 44
25 25 25 26 26 25 24 24 24 24 24 23 23 23 24 23 23 24 23 23 22 22 23 24 25 26 28 29 31 32 33 34 35 36 37 37 37 37 38 38 40 41 41 42 43 43 44 45 45
27 26 26 27 27 26 25 25 25 24 24 24 24 24 24 24 24 24 24 23 23 23 24 25 25 25 28 30 31 32 33 35 35 36 37 38 38 39 39 39 40 41 41 42 43 44 45 45 46
28 27 27 27 28 28 27 26 25 24 24 25 25 25 25 25 24 24 24 24 24 24 25 25 25 26 28 30 31 32 33 34 36 37 38 38 38 38 39 39 41 42 43 43 43 45 46 46 46
29 29 28 28 29 28 28 26 24 24 25 25 26 25 25 25 24 24 24 24 25 25 24 25 26 27 29 30 31 32 33 34 35 37 38 39 40 41 41 41 41 42 44 45 46 46 46 46 47
30 30 29 30 30 30 30 28 25 25 25 26 26 25 25 26 25 25 26 25 25 25 25 26 27 28 29 30 31 32 33 34 35 37 38 39 41 41 41 42 42 43 44 45 46 47 47 47 47
Wind_Direction
271 267 263 260 256 254 254 255 254 252 249 247 247 245 245 246 246 246 247 245 245 246 245 243 240 238 238 237 235 233 232 232 231 231 230 231 232 234 235 237 237 238 240 241 243 247 253 256 260
271 267 262 259 257 256 256 254 252 251 249 246 245 246 245 245 246 247 246 245 245 245 246 245 242 239 238 238 237 236 235 234 235 234 232 234 235 237 238 239 240 241 243 245 246 250 253 258 262
269 266 262 261 259 259 258 255 253 251 247 245 244 245 245 244 244 245 245 246 245 245 246 246 243 241 240 239 239 238 237 236 237 238 236 236 238 238 239 240 241 242 243 245 246 249 253 258 261
268 266 264 262 261 260 260 257 255 252 247 244 244 244 244 243 244 244 245 245 245 245 246 247 245 244 242 241 241 241 238 239 240 241 240 240 239 240 240 240 240 241 242 244 247 250 254 257 260
268 267 265 263 262 262 260 258 255 251 247 245 244 244 243 243 244 244 244 244 245 245 245 247 246 246 244 242 241 243 241 241 241 242 243 241 240 239 240 240 239 240 242 245 248 251 255 257 259
268 266 265 264 264 263 262 258 254 250 247 245 245 246 244 243 244 244 244 244 245 246 246 247 247 247 246 245 243 243 242 242 241 242 244 243 240 240 239 240 241 242 244 246 249 252 255 258 260
270 266 264 265 265 265 263 257 252 249 248 247 247 247 245 244 245 245 245 245 246 248 248 248 247 247 247 245 242 241 242 242 242 241 242 241 240 240 241 240 242 245 246 247 249 251 253 257 260
272 268 265 266 267 266 264 259 254 250 248 248 248 248 247 245 245 245 246 246 247 248 249 249 248 248 247 244 243 241 241 242 241 241 241 241 241 241 241 242 243 245 246 247 248 250 253 256 260
273 271 268 267 267 265 264 260 256 252 248 250 251 251 249 249 247 247 247 248 248 249 250 250 250 249 246 244 242 241 241 241 240 240 241 241 241 242 242 243 243 244 245 247 249 251 254 257 260
272 272 269 267 266 264 263 262 259 253 252 255 254 252 251 250 248 248 248 249 250 251 251 251 250 249 246 244 243 242 242 241 241 240 241 241 240 242 243 244 245 245 246 248 251 253 255 257 259
272 273 272 266 264 263 263 262 260 257 257 260 257 253 253 253 250 249 249 251 252 253 253 253 252 251 248 246 244 243 241 240 241 241 240 241 241 241 243 244 245 246 247 249 252 254 256 257 259
273 274 272 268 266 265 264 262 262 260 260 263 259 254 253 254 253 252 251 252 254 254 254 254 253 252 249 247 245 242 240 240 241 240 238 240 242 241 243 244 246 247 248 250 253 255 257 258 259
274 274 272 269 266 266 264 264 264 263 265 264 260 255 254 254 254 254 253 254 256 255 255 255 253 251 249 248 244 241 239 238 240 241 238 239 240 241 242 245 247 249 250 251 254 255 257 258 259
272 273 272 271 269 267 265 266 267 265 265 264 261 258 256 256 256 256 256 256 257 257 255 253 251 250 248 248 245 241 239 237 238 239 239 239 241 242 243 244 246 249 252 254 255 256 257 259 260
270 271 272 272 270 268 268 268 269 268 266 265 262 261 259 260 260 259 259 258 257 257 256 253 250 249 247 247 245 241 238 237 239 239 240 240 241 243 244 244 245 249 252 254 255 257 258 261 261
268 270 272 273 271 270 270 269 270 271 269 267 264 262 261 262 263 262 261 260 259 257 256 254 251 248 248 247 244 241 238 238 239 239 240 239 240 242 243 245 245 248 251 253 256 258 260 262 262
268 270 273 274 274 273 272 272 272 273 270 266 265 264 262 262 264 263 262 260 260 259 257 255 251 248 247 245 243 240 238 239 237 237 237 238 239 242 243 244 246 247 250 252 256 259 261 262 263
270 272 274 274 276 277 277 275 273 272 269 265 264 264 263 263 265 264 262 260 260 260 259 257 251 248 245 243 241 239 239 239 237 237 236 238 238 242 244 245 247 248 251 254 257 259 262 264 265
271 273 276 276 277 276 278 277 275 273 271 268 265 264 263 265 266 266 265 263 262 260 258 255 251 247 244 241 239 239 239 238 237 236 236 239 239 242 246 248 249 249 252 255 258 260 263 265 267
270 272 274 276 278 277 277 276 275 275 272 269 268 268 264 264 266 268 266 265 263 260 259 255 252 248 244 240 238 238 238 239 239 238 239 241 242 243 246 249 250 250 254 257 260 262 264 265 267
268 270 271 274 276 277 278 276 276 275 273 271 269 269 268 267 267 269 271 270 264 261 262 256 252 248 241 237 238 238 240 241 240 240 241 243 244 244 246 249 250 252 255 258 261 264 265 266 267
267 268 270 271 274 277 278 277 275 274 273 272 272 270 269 269 267 268 271 269 263 260 260 256 251 247 244 243 240 239 242 242 242 242 243 245 247 247 248 251 253 255 256 259 261 264 265 266 268
266 268 270 270 272 275 277 277 275 272 272 272 273 273 272 270 270 271 272 269 265 261 259 254 252 249 248 247 243 241 244 244 243 244 245 246 249 250 251 252 256 256 258 260 262 264 266 267 268
265 267 270 271 273 273 275 277 275 272 273 273 274 275 274 274 275 274 272 270 267 262 258 256 254 250 248 246 245 243 244 245 245 245 246 248 251 252 253 254 257 258 260 262 263 265 266 267 268
263 266 269 270 271 273 275 275 275 274 274 275 275 275 276 277 277 277 274 270 268 264 262 259 257 253 247 247 247 245 245 246 247 248 250 251 253 255 255 255 257 260 262 264 266 266 266 268 269
263 265 267 270 271 273 273 273 274 274 276 276 274 274 275 276 278 278 276 273 268 266 265 263 259 255 248 246 248 248 247 248 248 249 251 253 255 258 258 259 259 262 264 266 266 266 267 268 269
262 263 266 269 270 271 271 272 272 275 277 276 274 275 276 276 277 277 275 272 269 268 267 264 260 257 251 248 250 250 250 250 249 251 253 255 257 259 260 262 263 262 264 265 266 267 268 269 270
260 263 265 266 268 270 271 271 273 276 277 276 275 275 275 276 277 276 275 273 270 268 266 264 262 259 256 253 253 252 251 251 251 252 255 258 259 260 262 264 264 263 264 265 267 268 269 270 271
259 261 264 265 266 268 269 271 273 275 276 277 277 276 276 277 277 276 274 272 269 269 268 265 263 261 258 256 255 255 253 251 252 254 256 259 261 262 263 264 265 265 266 267 268 269 270 271 273
258 260 262 263 265 266 268 268 271 275 277 278 277 277 276 276 275 274 272 270 269 269 269 268 264 262 261 258 258 258 257 257 257 258 259 260 263 264 265 266 267 268 269 269 270 272 272 273 275